{"data":{"norad_id":60394,"epoch":"2026-09-22T20:14:22.826400Z","epoch_age_seconds":83805,"freshness":"FRESH","line1":"1 60394U 24140R   26265.84331975  .00000025  00000+0  20417-4 0  9998","line2":"2 60394  88.9664 269.8924 0016622 108.9505 251.3449 13.51025321105535","mean_motion":13.51025321,"eccentricity":0.0016622,"inclination_deg":88.9664,"raan_deg":269.8924,"arg_perigee_deg":108.9505,"mean_anomaly_deg":251.3449,"bstar":2.0417e-5,"rev_number":10553,"period_min":106.58571513183,"perigee_km":1056.1107594082,"apogee_km":1080.8663213547,"semimajor_km":7446.6255403815,"source":"CELESTRAK","updated_at":"2026-09-23T09:00:20.601216Z"}}